| time (UTC) | temp C | wind direction | speed KPH | gust KPH | rain 1hr cm | rain 24hr cm | rain mn cm | humidity % | barometer mb |
| 20260508064700 | 17 | 176 | 3.2 | 16.1 | 0.00 | 0.61 | 0.61 | 92 | 1011.4 |
| 20260508063106 | 18 | 72 | 6.4 | 16.1 | 0.00 | 0.61 | 0.61 | 91 | 1011.9 |
| 20260508061557 | 18 | 342 | 4.8 | 12.9 | 0.00 | 0.61 | 0.61 | 90 | 1012.2 |
| 20260508060056 | 18 | 125 | 4.8 | 14.5 | 0.00 | 0.61 | 0.61 | 91 | 1012.4 |
| 20260508054553 | 18 | 8 | 4.8 | 14.5 | 0.00 | 0.61 | 0.61 | 91 | 1012.6 |
| 20260508053055 | 18 | 109 | 3.2 | 16.1 | 0.00 | 0.61 | 0.61 | 91 | 1012.6 |
| 20260508051552 | 18 | 110 | 3.2 | 12.9 | 0.00 | 0.61 | 0.61 | 91 | 1013.1 |
| 20260508050051 | 18 | 127 | 3.2 | 11.3 | 0.00 | 0.61 | 0.61 | 91 | 1013.0 |
| 20260508044547 | 18 | 59 | 1.6 | 14.5 | 0.00 | 0.61 | 0.61 | 91 | 1013.4 |
| 20260508043045 | 18 | 47 | 4.8 | 14.5 | 0.00 | 0.61 | 0.61 | 91 | 1013.3 |
| 20260508041545 | 18 | 73 | 6.4 | 19.3 | 0.00 | 0.61 | 0.61 | 91 | 1013.3 |
| 20260508040050 | 18 | 114 | 4.8 | 12.9 | 0.00 | 0.61 | 0.61 | 91 | 1013.6 |
| 20260508034542 | 18 | 46 | 4.8 | 12.9 | 0.03 | 0.61 | 0.61 | 91 | 1013.6 |
| 20260508033041 | 18 | 79 | 4.8 | 12.9 | 0.03 | 0.61 | 0.61 | 92 | 1013.7 |
| 20260508031539 | 17 | 53 | 8.0 | 16.1 | 0.03 | 0.61 | 0.61 | 93 | 1013.9 |
| 20260508030039 | 17 | 129 | 3.2 | 16.1 | 0.13 | 0.61 | 0.61 | 94 | 1014.2 |
| 20260508024546 | 17 | 102 | 4.8 | 12.9 | 0.10 | 0.61 | 0.61 | 95 | 1014.4 |
| 20260508023035 | 17 | 84 | 3.2 | 12.9 | 0.10 | 0.61 | 0.61 | 94 | 1014.5 |
| 20260508021534 | 17 | 84 | 3.2 | 11.3 | 0.10 | 0.61 | 0.61 | 93 | 1014.8 |
| 20260508020033 | 17 | 329 | 3.2 | 6.4 | 0.00 | 0.51 | 0.51 | 93 | 1015.0 |
| 20260508014537 | 18 | 80 | 1.6 | 9.7 | 0.00 | 0.51 | 0.51 | 93 | 1015.3 |
| 20260508013027 | 18 | 116 | 1.6 | 8.0 | 0.08 | 0.51 | 0.51 | 93 | 1015.7 |
| 20260508011528 | 18 | 79 | 1.6 | 8.0 | 0.18 | 0.51 | 0.51 | 94 | 1015.7 |
| 20260508010033 | 18 | 105 | 3.2 | 11.3 | 0.25 | 0.51 | 0.51 | 94 | 1015.5 |
| 20260508004523 | 17 | 68 | 1.6 | 11.3 | 0.25 | 0.51 | 0.51 | 93 | 1016.1 |
| 20260508003020 | 18 | 342 | 3.2 | 11.3 | 0.18 | 0.43 | 0.43 | 91 | 1016.5 |
| 20260508001518 | 18 | 102 | 1.6 | 9.7 | 0.05 | 0.30 | 0.30 | 89 | 1016.6 |
| 20260508000015 | 18 | 81 | 3.2 | 14.5 | 0.03 | 0.23 | 0.23 | 90 | 1017.0 |
| 20260507234517 | 18 | 88 | 3.2 | 9.7 | 0.03 | 0.23 | 0.23 | 91 | 1017.3 |
| 20260507233028 | 17 | 104 | 1.6 | 9.7 | 0.03 | 0.23 | 0.23 | 91 | 1017.6 |
| 20260507231509 | 18 | 120 | 8.0 | 27.4 | 0.03 | 0.23 | 0.23 | 88 | 1017.8 |
| 20260507230008 | 19 | 75 | 4.8 | 14.5 | 0.00 | 0.23 | 0.23 | 83 | 1017.8 |
| 20260507224508 | 20 | 120 | 3.2 | 11.3 | 0.00 | 0.23 | 0.23 | 84 | 1017.8 |
| 20260507223006 | 20 | 155 | 1.6 | 8.0 | 0.00 | 0.23 | 0.23 | 84 | 1018.0 |
| 20260507221510 | 19 | 103 | 3.2 | 9.7 | 0.00 | 0.23 | 0.23 | 86 | 1018.1 |
| 20260507220003 | 18 | 111 | 1.6 | 8.0 | 0.00 | 0.23 | 0.23 | 89 | 1018.2 |
| 20260507214502 | 18 | 128 | 3.2 | 11.3 | 0.00 | 0.23 | 0.23 | 88 | 1018.2 |
| 20260507213104 | 18 | 98 | 3.2 | 9.7 | 0.00 | 0.23 | 0.23 | 88 | 1018.3 |
| 20260507211615 | 19 | 68 | 1.6 | 9.7 | 0.00 | 0.23 | 0.23 | 88 | 1018.5 |
| 20260507210106 | 19 | 110 | 3.2 | 8.0 | 0.00 | 0.23 | 0.23 | 87 | 1018.6 |
| 20260507204558 | 19 | 102 | 1.6 | 8.0 | 0.00 | 0.23 | 0.23 | 91 | 1018.4 |
| 20260507203105 | 18 | 80 | 3.2 | 9.7 | 0.00 | 0.23 | 0.23 | 92 | 1018.4 |
| 20260507201557 | 17 | 123 | 0.0 | 11.3 | 0.00 | 0.23 | 0.23 | 93 | 1018.7 |
| 20260507200103 | 17 | 87 | 3.2 | 9.7 | 0.00 | 0.23 | 0.23 | 93 | 1018.4 |
| 20260507194547 | 17 | 105 | 3.2 | 11.3 | 0.00 | 0.23 | 0.23 | 94 | 1018.3 |
| 20260507193049 | 17 | 84 | 1.6 | 8.0 | 0.00 | 0.23 | 0.23 | 95 | 1018.4 |
| 20260507191545 | 17 | 103 | 1.6 | 12.9 | 0.00 | 0.23 | 0.23 | 96 | 1018.5 |
| 20260507190048 | 17 | 101 | 1.6 | 6.4 | 0.00 | 0.23 | 0.23 | 96 | 1018.5 |
| 20260507184547 | 16 | 107 | 1.6 | 11.3 | 0.00 | 0.23 | 0.23 | 97 | 1018.5 |
| 20260507183046 | 16 | 68 | 3.2 | 9.7 | 0.00 | 0.23 | 0.23 | 97 | 1018.6 |
| 20260507181540 | 16 | 105 | 0.0 | 3.2 | 0.00 | 0.23 | 0.23 | 97 | 1018.8 |
| 20260507180045 | 16 | 119 | 0.0 | 1.6 | 0.00 | 0.23 | 0.23 | 97 | 1018.7 |
| 20260507174539 | 16 | 146 | 0.0 | 0.0 | 0.00 | 0.23 | 0.23 | 96 | 1018.9 |
| 20260507173037 | 16 | 147 | 0.0 | 0.0 | 0.00 | 0.23 | 0.23 | 96 | 1019.0 |
| 20260507171535 | 16 | 146 | 0.0 | 0.0 | 0.00 | 0.23 | 0.23 | 96 | 1019.1 |
| 20260507170037 | 16 | 146 | 0.0 | 0.0 | 0.00 | 0.23 | 0.23 | 96 | 1019.1 |
| 20260507164541 | 16 | 146 | 0.0 | 1.6 | 0.00 | 0.23 | 0.23 | 96 | 1019.1 |
| 20260507163033 | 16 | 146 | 0.0 | 0.0 | 0.00 | 0.23 | 0.23 | 96 | 1019.2 |
| 20260507161533 | 16 | 147 | 0.0 | 1.6 | 0.00 | 0.23 | 0.23 | 96 | 1019.1 |
| 20260507160032 | 16 | 147 | 0.0 | 0.0 | 0.00 | 0.23 | 0.23 | 96 | 1019.3 |
| 20260507154530 | 16 | 146 | 0.0 | 0.0 | 0.00 | 0.23 | 0.23 | 96 | 1019.5 |
| 20260507153026 | 16 | 147 | 0.0 | 0.0 | 0.00 | 0.23 | 0.23 | 96 | 1019.7 |
| 20260507151525 | 16 | 146 | 0.0 | 0.0 | 0.00 | 0.23 | 0.23 | 96 | 1019.9 |
| 20260507150025 | 16 | 146 | 0.0 | 1.6 | 0.03 | 0.23 | 0.23 | 95 | 1020.1 |
| 20260507144525 | 16 | 146 | 0.0 | 1.6 | 0.03 | 0.23 | 0.23 | 95 | 1020.3 |
| 20260507143017 | 16 | 96 | 0.0 | 1.6 | 0.13 | 0.23 | 0.23 | 95 | 1020.5 |
| 20260507141516 | 16 | 96 | 0.0 | 1.6 | 0.13 | 0.23 | 0.23 | 95 | 1020.6 |
| 20260507140014 | 16 | 96 | 0.0 | 4.8 | 0.10 | 0.20 | 0.20 | 95 | 1020.7 |
| 20260507134513 | 16 | 78 | 0.0 | 6.4 | 0.13 | 0.20 | 0.20 | 95 | 1020.8 |
| 20260507133011 | 16 | 74 | 3.2 | 9.7 | 0.10 | 0.10 | 0.10 | 95 | 1021.0 |
| 20260507131509 | 16 | 111 | 0.0 | 8.0 | 0.10 | 0.10 | 0.10 | 94 | 1021.1 |
| 20260507130006 | 17 | 88 | 1.6 | 8.0 | 0.10 | 0.10 | 0.10 | 93 | 1021.3 |
| 20260507124505 | 17 | 12 | 4.8 | 17.7 | 0.08 | 0.08 | 0.08 | 92 | 1021.5 |
| 20260507123006 | 17 | 105 | 1.6 | 8.0 | 0.00 | 0.00 | 0.00 | 92 | 1021.4 |
| 20260507121616 | 17 | 120 | 0.0 | 6.4 | 0.00 | 0.00 | 0.00 | 93 | 1021.5 |
| 20260507120103 | 17 | 82 | 1.6 | 4.8 | 0.00 | 0.00 | 0.00 | 94 | 1021.6 |
| 20260507114638 | 17 | 107 | 0.0 | 4.8 | 0.00 | 0.00 | 0.00 | 94 | 1021.6 |
| 20260507113054 | 16 | 116 | 0.0 | 3.2 | 0.00 | 0.00 | 0.00 | 95 | 1021.8 |
| 20260507111558 | 15 | 111 | 0.0 | 1.6 | 0.00 | 0.00 | 0.00 | 94 | 1022.0 |
| 20260507110052 | 15 | 112 | 0.0 | 1.6 | 0.00 | 0.00 | 0.00 | 93 | 1022.1 |
| 20260507104551 | 15 | 112 | 0.0 | 1.6 | 0.00 | 0.00 | 0.00 | 92 | 1022.3 |
| 20260507103048 | 15 | 111 | 0.0 | 1.6 | 0.00 | 0.00 | 0.00 | 91 | 1022.1 |
| 20260507101547 | 16 | 110 | 0.0 | 1.6 | 0.00 | 0.00 | 0.00 | 91 | 1022.1 |
| 20260507100043 | 16 | 111 | 0.0 | 3.2 | 0.00 | 0.00 | 0.00 | 92 | 1022.3 |
| 20260507094543 | 17 | 110 | 0.0 | 3.2 | 0.00 | 0.00 | 0.00 | 91 | 1022.2 |
| 20260507093047 | 17 | 111 | 0.0 | 1.6 | 0.00 | 0.00 | 0.00 | 90 | 1022.4 |
| 20260507091546 | 17 | 111 | 0.0 | 1.6 | 0.00 | 0.00 | 0.00 | 90 | 1022.4 |
| 20260507090042 | 16 | 111 | 0.0 | 1.6 | 0.00 | 0.00 | 0.00 | 91 | 1022.5 |
| 20260507084553 | 16 | 109 | 0.0 | 1.6 | 0.00 | 0.00 | 0.00 | 90 | 1022.6 |
| 20260507083039 | 16 | 109 | 0.0 | 1.6 | 0.00 | 0.00 | 0.00 | 90 | 1022.6 |
| 20260507081540 | 16 | 109 | 0.0 | 0.0 | 0.00 | 0.00 | 0.00 | 90 | 1022.7 |
| 20260507080041 | 16 | 108 | 0.0 | 1.6 | 0.00 | 0.00 | 0.00 | 89 | 1022.8 |
| 20260507074537 | 16 | 108 | 0.0 | 1.6 | 0.00 | 0.00 | 0.00 | 88 | 1022.8 |
| 20260507073036 | 16 | 108 | 0.0 | 3.2 | 0.00 | 0.00 | 0.00 | 88 | 1022.8 |
| 20260507071535 | 16 | 108 | 0.0 | 1.6 | 0.00 | 0.00 | 0.00 | 88 | 1022.8 |
| 20260507070036 | 16 | 103 | 0.0 | 1.6 | 0.00 | 0.00 | 0.00 | 87 | 1022.7 |